Regional Weather Roundup
Issued by NWS Charleston, SC

Current Version | Previous Version | Graphics & Text | Print | Product List | Glossary On
Versions: 1 2 3 4 5 6 7 8 9 10 11 12 13 14 15 16 17 18 19 20 21 22 23 24 25 26 27 28 29 30 31 32 33 34 35 36 37 38 39 40 41 42 43 44 45 46 47 48 49 50
000
ASUS42 KCHS 022312
RWRCHS

REGIONAL WEATHER ROUNDUP
NATIONAL WEATHER SERVICE CHARLESTON SC
700 PM EDT THU JUL 02 2015

NOTE: "FAIR" INDICATES FEW OR NO CLOUDS BELOW 12,000 FEET WITH NO
SIGNIFICANT WEATHER AND/OR OBSTRUCTIONS TO VISIBILITY.

NOT ALL STATIONS ARE QUALITY CONTROLLED BY THE NATIONAL
WEATHER SERVICE. USE DATA WITH CAUTION...ESPECIALLY
DEWPOINT OBSERVATIONS.

SCZ027-030-031-034>040-042>050-030000-
...SOUTHEAST SOUTH CAROLINA...

CITY           SKY/WX    TMP DP  RH WIND       PRES   REMARKS
N CHARLESTON   MOSUNNY   86  72  62 SW18      29.93S HX  92
WATERFRONT PAR   N/A     84  76  77 S16       29.91F HX  93
MOUNT PLEASANT LGT RAIN  84  75  74 S16G23    29.94S HX  92
JOHNS ISLAND   FAIR      84  75  74 S16G28    29.94S HX  92
PINOPOLIS      NOT AVBL
MONCKS CORNER  FAIR      88  72  58 S12G22    29.90F HX  94
SUMMERVILLE    FAIR      86  75  70 S5        29.92S HX  95
BEAUFORT MCAS  SUNNY     85  75  72 S12G22    29.94S HX  93
BEAUFORT ARPT  FAIR      84  77  79 S14G26    29.94S HX  94
HILTON HEAD IS MOSUNNY   84  75  74 MISG      29.97S HX  92
WALTERBORO     PTCLDY    88  68  51 W7        29.96R HX  91
ALLENDALE      RAIN      72  70  94 NW5G15    29.98R

...SOUTHERN MIDLANDS AND PEE DEE...

CITY           SKY/WX    TMP DP  RH WIND       PRES   REMARKS
GEORGETOWN     NOT AVBL
KINGSTREE      NOT AVBL
ORANGEBURG     LGT RAIN  71  68  90 SW3       29.98F FOG
BARNWELL       HVY RAIN  72  70  94 W3        30.02R
AIKEN          NOT AVBL
MANNING        LGT RAIN  72  68  88 NW10G26   29.93R
COLUMBIA       LGT RAIN  72  69  90 S10       29.94F
SUMTER         LGT RAIN  72  70  94 S6        29.93S
FLORENCE       LGT RAIN  73  70  90 S10       29.94R FOG
MYRTLE BEACH   MOSUNNY   86  73  66 SW17G24   29.91F HX  93
N MYRTLE BEACH SUNNY     84  75  74 SW21G29   29.91S HX  92

$$

GAZ063-065-086>088-099>101-113>116-118-119-134>141-150-030000-
...SOUTHEAST GEORGIA...

CITY           SKY/WX    TMP DP  RH WIND       PRES   REMARKS
SAVANNAH ARPT  PTSUNNY   89  69  51 W13       29.96R HX  93
HUNTER AAF     PTSUNNY   87  76  69 S7        29.94R HX  97
FORT STEWART   TSTM      75  68  78 W15G33    30.04R
STATESBORO     NOT AVBL
SYLVANIA       TSTM      74  70  89 W7        30.01R
CLAXTON        TSTM      70  70 100 CALM      30.02R

...CSRA...CENTRAL AND FAR SOUTHEAST GEORGIA...

CITY           SKY/WX    TMP DP  RH WIND       PRES   REMARKS
THOMSON        CLOUDY    72  72  99 CALM      30.04S
AUGUSTA-BUSH   LGT RAIN  72  70  93 SW6       29.98R
AUGUSTA-DANIEL LGT RAIN  72  69  90 CALM      29.99F
SWAINSBORO     FAIR     N/A N/A N/A CALM      30.01R
VIDALIA        RAIN      72  70  94 SW7       30.02S
EASTMAN        FAIR      74  74 100 SW5       30.03S
HAZLEHURST     LGT RAIN  74  74 100 SW5       30.02S
ALMA           LGT RAIN  73  72  96 W5        30.04F
WAYCROSS       LGT RAIN  75  74  98 W5        30.06F
JESUP          RAIN      75  73  94 W8        30.07R
BAXLEY         LGT RAIN  73  72  94 W7        30.04S
BRUNSWICK      CLOUDY    75  72  88 W10G25    30.07R THUNDER
SAINT SIMONS   PTSUNNY   77  72  84 W15G25    30.05R

$$

SCZ027-028-034-036>038-045-046-048>050-GAZ119-141-030000-
...LAKE AND SUPPLEMENTAL COASTAL OBSERVATIONS...

STATION/POSITION TIME  TEMP    WIND        PRES    WAVE   SWELL
                       AIR SEA DIR/SP/G            HT/PER HT/PER/DIR
                 (UTC) (F)     (DEG/KT/KT) (MB)    (FT/S) (FT/S/D)
UPR LAKE MARION  NOT AVBL
WINYAH BAY       NOT AVBL
LAKE MURRAY      2200   73     200/  9/ 11 1012.9F
ACE BASIN NERRS  NOT AVBL
FORT PULASKI     2200   85 84  190/ 10/ 17 1014.9S
SAPELO ISLAND    2200   86     180/ 18     1015.0S

$$

ANZ835-935-AMZ111-154-330-350-352-354-370-450-454-472-030000-
...C-MAN AND BUOY OBSERVATIONS...

STATION/POSITION TIME  TEMP    WIND        PRES    WAVE   SWELL
                       AIR SEA DIR/SP/G            HT/PER HT/PER/DIR
                 (UTC) (F)     (DEG/KT/KT) (MB)    (FT/S) (FT/S/D)
BUOY 41004       2250   82 82  200/ 21/ 23 1013.3F   4/ 5   2/ 9
BUOY 41008       2250   80 79  210/ 29/ 39 1015.4R   4/ 4   2/210/ 9
FOLLY BEACH CMAN 2200   82     190/ 19/ 22 1014.2F
CAPERS NEARSHORE 2208   82     210/ 17/ 25 1014.1F
FRIPP NEARSHORE  2200   83     200/ 21/ 25 1013.7F


STATION/POSITION TIME  TEMP    WIND        PRES    WAVE   SWELL
                       AIR SEA DIR/SP/G            HT/PER HT/PER/DIR
                 (UTC) (F)     (DEG/KT/KT) (MB)    (FT/S) (FT/S/D)
5E ST. MARYS GA  2221      78                N/A     3/ 4
FRYING PAN BUOY  2250   82 80  200/ 17/ 21 1013.5F   4/ 5   2/120/ 8
BUOY 41025       2250   83 83  220/ 25/ 29 1011.7S   6/ 6   2/140/ 8
CAPE LOOKOUT NC  2200   82     210/ 16/ 21 1012.3F
BUOY 41002       2250   81 80  200/ 12/ 14 1017.9F   6/ 7   5/240/ 7
BUOY 41010       2220   84 85  200/  8/ 10 1019.0R
ST AUGUSTINE FL  2300   76 73  240/  5/  6 1019.4R


$$


USA.gov is the U.S. government's official web portal to all federal, state and local government web resources and services.